Location: Berlin
(52.5200°N, 13.4050°E)
Time: 06:33:31
(UTC+02:00)

ISS - Visible Passes

Search period start: 13 May 2021 00:00
Search period end: 23 May 2021 00:00
Orbit: 417 x 422 km, 51.6° (Epoch: 12 May)

Date Brightness Start Highest point End Pass type
(mag) Time Alt. Az. Time Alt. Az. Time Alt. Az.
13 May -1.6 00:32:07 17° E 00:32:07 17° E 00:33:01 10° E visible
13 May -3.9 02:05:02 32° W 02:06:26 79° S 02:09:49 10° E visible
13 May -3.6 03:39:50 10° W 03:43:08 49° SSW 03:46:25 10° ESE visible
14 May -3.9 01:18:39 66° SW 01:19:00 76° S 01:22:23 10° E visible
14 May -3.8 02:52:24 10° W 02:55:44 60° SSW 02:59:05 10° ESE visible
14 May -2.8 22:52:11 10° SSW 22:55:05 27° SSE 22:57:59 10° E visible
15 May -3.9 00:28:13 10° WSW 00:31:35 68° S 00:34:57 10° E visible
15 May -3.9 02:04:58 10° W 02:08:20 70° S 02:11:42 10° ESE visible
15 May -2.9 03:41:53 10° W 03:44:52 29° SSW 03:47:49 10° SSE visible
15 May -2.4 22:05:18 10° SSW 22:07:49 20° SE 22:10:20 10° E visible
15 May -3.8 23:40:52 10° WSW 23:44:11 58° SSE 23:47:31 10° E visible
16 May -3.9 01:17:32 10° W 01:20:55 77° S 01:24:17 10° E visible
16 May -3.3 02:54:22 10° W 02:57:32 38° SSW 03:00:42 10° SE visible
16 May -3.5 22:53:33 10° SW 22:56:48 46° SSE 23:00:04 10° E visible
17 May -3.9 00:30:06 10° W 00:33:29 79° S 00:36:52 10° E visible
17 May -3.6 02:06:54 10° W 02:10:11 49° SSW 02:13:27 10° SE visible
17 May -2.1 03:45:04 13° WSW 03:46:26 15° SW 03:48:30 10° S visible
17 May -3.2 22:06:20 10° SW 22:09:27 36° SSE 22:12:35 10° E visible
17 May -3.9 23:42:41 10° W 23:46:03 76° S 23:49:26 10° E visible
18 May -3.8 01:19:27 10° W 01:22:47 60° SSW 01:22:56 59° S visible
18 May -3.9 22:55:16 10° WSW 22:58:38 68° S 23:01:59 10° E visible
19 May -3.9 00:32:00 10° W 00:35:22 70° S 00:36:32 37° ESE visible
19 May -1.4 02:08:56 10° W 02:09:27 13° W 02:09:27 13° W visible
19 May -3.7 22:07:54 10° WSW 22:11:13 58° SSE 22:14:32 10° E visible
19 May -3.9 23:44:34 10° W 23:47:57 77° S 23:50:22 18° E visible
20 May -2.4 01:21:24 10° W 01:23:17 26° WSW 01:23:17 26° WSW visible
20 May -3.9 22:57:08 10° W 23:00:30 79° S 23:03:53 10° E visible
21 May -3.6 00:33:55 10° W 00:37:12 48° SSW 00:37:13 48° SSW visible
21 May -3.8 22:09:42 10° W 22:13:04 76° S 22:16:27 10° E visible
21 May -3.8 23:46:28 10° W 23:49:48 60° SSW 23:51:11 31° SE visible
22 May -1.4 01:23:35 10° W 01:24:07 13° WSW 01:24:07 13° WSW visible
22 May -3.8 22:59:02 10° W 23:02:23 70° S 23:05:12 14° ESE visible
